weather.gov     
National Weather Service

Terminal Aerodrome Forecast
NWS Homepage
This page is being discontinued on March 12, 2014.
The same data is available at this site. Please update your bookmarks.
Thank you, and we apologize for the inconvenience.
Please send an email to SR-SRH.Webmaster@noaa.gov with any concerns.


Current Version
Previous Version:    01  02  03  04  05  06  07  08  09  10  11  12  13  14  
[Printable]
232
FTUS41 KGYX 272320
TAFRKD
TAF
KRKD 272320Z 2800/2824 01006KT P6SM SKC
     FM280300 02004KT P6SM SCT040 OVC100
     FM280500 02004KT P6SM OVC050
      AMD LTD TO CLD VIS AND WIND=


232
FTUS41 KGYX 272320
TAFRKD
TAF
KRKD 272320Z 2800/2824 01006KT P6SM SKC
     FM280300 02004KT P6SM SCT040 OVC100
     FM280500 02004KT P6SM OVC050
      AMD LTD TO CLD VIS AND WIND=




U.S. Dept. of Commerce
NOAA National Weather Service
1325 East West Highway
Silver Spring, MD 20910
E-mail: w-nws.webmaster@noaa.gov
Page last modified: May 16, 2007
NATIONAL WEATHER SERVICE: for Safety, for Work, for Fun - FOR LIFE